カタリナ彗星

P/2007 T6 ( Catalina )

English version
Home page
Total 6,336 html files since Dec. 4, 1995
Updated on April 4, 2008

---------------------------------------------------------------------

・ プロフィール

発見日 2007年10月13日
発見光度 17.8等
発見者 Catalina Sky Survey

・ 軌道要素

Epoch 2007 Aug. 8.0 TT = JDT 2454320.5
T 2007 Aug. 19.66798 TT                                 MPC
q   2.2322731            (2000.0)            P               Q
n   0.10352920     Peri.  335.86923     +0.16986851     -0.91420964
a   4.4918732      Node   102.63405     +0.95433437     +0.05950624
e   0.5030418      Incl.   22.15107     +0.24574500     +0.40084877
P   9.52

・ 星図

・ 光度変化

        m1 = 12.0 + 5 logΔ + 10.0 log r

---------------------------------------------------------------------

軌道要素はM.P.E.C. 2007-Y08に掲載されたものです。
星図はステラナビゲータ Ver.8 (アストロアーツ) で作成したものです。
光度グラフはComet for Windowsで作成したものです。

---------------------------------------------------------------------

Copyright(C) 1995-2008 Seiichi Yoshida (comet@aerith.net). All rights reserved.